Miscellaneous Local Product
Issued by NWS North Platte, NE

Home | Current Version | Previous Version | Graphics & Text | Print | Product List | Glossary On
Versions: 1 2 3 4 5 6 7 8 9 10 11 12 13 14 15 16 17 18 19 20 21 22 23 24 25 26 27 28 29 30 31 32 33 34 35 36 37 38 39 40 41 42 43 44 45 46 47 48 49 50
000
AXUS43 KLBF 231910
MISLBF


WESTERN AND NORTH CENTRAL NEBRASKA HOURLY WEATHER ROUNDUP
NATIONAL WEATHER SERVICE NORTH PLATTE NE
200 PM CDT SAT AUG 23 2014

***STATIONS NOT REPORTING VARIABLES SUCH AS SKY/WEATHER OR
PRESSURE ARE PROVIDED BY THE NEBRASKA DEPARTMENT OF
ROADS...RAWS...AND APRS NETWORKS...AND ARE NOT UNDER
NATIONAL WEATHER SERVICE QUALITY CONTROL***

...OBSERVATIONS IN AND NEAR THE EASTERN PANHANDLE OF NEBRASKA...

CITY           SKY/WX    TMP DP  RH WIND       PRES   REMARKS
PINE RIDGE     CLOUDY    72  63  73 SW6       29.83F
CHADRON        MOSUNNY   77  61  57 N7        29.80F
ALLIANCE       PTSUNNY   73  60  63 S5        29.86F
SIDNEY         MOSUNNY   77  58  51 SE5       29.89F
WHITECLAY        N/A     72  61  67 SE12        N/A
RUSHVILLE        N/A     73  60  63 SW9         N/A
GORDON           N/A     74  64  71 S6          N/A
CRESCENT LAKE    N/A     75  60  60 S5          N/A
LISCO            N/A     81  59  47 S3          N/A
BIG SPRINGS      N/A     70  65  83 CALM        N/A
$$

...OBSERVATIONS IN NORTH CENTRAL NEBRASKA...

CITY           SKY/WX    TMP DP  RH WIND       PRES   REMARKS
VALENTINE      CLOUDY    73  66  78 S15       29.82F
THEDFORD       CLOUDY    73  67  81 S12       29.85F
AINSWORTH      CLOUDY    70  67  89 SE10G20   29.83F
O`NEILL        CLOUDY    76  70  82 SE14      29.83S
ORD            PTSUNNY   79  69  71 SE13G22   29.79F
BROKEN BOW     CLOUDY    78  69  73 S14       29.83S
BROWNLEE         N/A     73  68  83 S15         N/A
SPRINGVIEW       N/A     73  68  84 S7G15       N/A
ROSE             N/A     75  73  93 E12         N/A
NEWPORT          N/A     74  70  87 SE12        N/A
SARGENT          N/A     76  71  85 CALM        N/A
COMSTOCK         N/A     86  76  70 S13         N/A  HX  96
CHAMBERS         N/A     80  71  73 S10         N/A
EWING            N/A     78  72  83 SE6G13      N/A
$$

...OBSERVATIONS IN SOUTHWEST NEBRASKA AND FAR NORTHEAST COLORADO...

CITY           SKY/WX    TMP DP  RH WIND       PRES   REMARKS
WRAY             N/A     81  59  46 SE6       29.87F
IMPERIAL       PTSUNNY   78  65  63 S6        29.84F
OGALLALA       CLOUDY    74  64  70 SW5       29.84F
NORTH PLATTE   CLOUDY    75  67  76 S9        29.83F
MCCOOK         PTSUNNY   80  66  62 VRB3      29.83F
LEXINGTON      PTSUNNY   82  71  68 S10       29.81F
PAXTON           N/A     76  68  76 E3          N/A
SUTHERLAND       N/A     80  71  73 E3          N/A
BRADY            N/A     74  69  83 CALM        N/A
GOTHENBURG       N/A     76  65  67 S6          N/A
CALLAWAY         N/A     69  69  99 SE8         N/A
$$

...SOME WEATHER OBSERVATIONS FROM AROUND THE REGION...

CITY           SKY/WX    TMP DP  RH WIND       PRES   REMARKS
DENVER         MOSUNNY   76  56  49 E10       29.93F
LARAMIE        CLOUDY    62  40  44 W7        30.04F
CHEYENNE       LGT RAIN  68  51  54 SW8       29.98S
SCOTTSBLUFF    MOSUNNY   81  58  45 W13       29.86F
RAPID CITY     PTSUNNY   74  63  68 VRB5      29.81F
PIERRE         CLOUDY    74  67  78 SE15      29.75F
WINNER         CLOUDY    76  66  71 S13G21    29.80S
SIOUX FALLS    PTSUNNY   78  72  81 SE13      29.86F
OMAHA          PTSUNNY   87  74  64 S14       29.83F HX  95
GRAND ISLAND   SUNNY     86  72  62 SE15      29.81F HX  92
KANSAS CITY    MOSUNNY   93  71  48 S10       29.89F HX 100
WICHITA        MOSUNNY   98  56  24 SW21      29.86F HX  96
HAYS           MOSUNNY   93  61  33 SW21G33   29.81F HX  93
LIBERAL        MOSUNNY   93  59  31 S23       29.89F HX  92
GOODLAND       PTSUNNY   79  62  56 MISG      29.87F
$$



USA.gov is the U.S. government's official web portal to all federal, state and local government web resources and services.